Le nostre stazioni meteo in Italia

Pubblicità
Il mio iltempo24.it
Elphin, Gran Bretagna (99153): Temperatura & dewpoint: 21.02.2017 22:00:00 - 27.02.2017 22:00:00 (GMT)Elphin, Gran Bretagna (99153): precipitazioni: 21.02.2017 22:00:00 - 27.02.2017 22:00:00 (GMT)
Data & Tempo tt [°C] td [°C] rr [mm]
27.02.2017 22:00:00 1,8 -0,2 -
27.02.2017 21:00:00 - - -
27.02.2017 20:00:00 2,2 -0,2 0,0
27.02.2017 19:00:00 2,2 -0,3 0,0
27.02.2017 18:00:00 2,2 -0,7 0,0
27.02.2017 17:00:00 2,4 -0,9 0,0
27.02.2017 16:00:00 3,7 -0,8 0,0
27.02.2017 15:00:00 4,2 -1,0 0,0
27.02.2017 14:00:00 3,8 -0,6 0,0
27.02.2017 13:00:00 4,6 0,4 0,0
27.02.2017 12:00:00 2,9 -1,0 0,0
27.02.2017 11:00:00 3,7 0,1 0,0
27.02.2017 10:00:00 2,1 -0,1 0,8
27.02.2017 09:00:00 0,1 -0,6 0,6
27.02.2017 08:00:00 0,0 -0,6 0,0
27.02.2017 07:00:00 -0,6 -1,6 0,0
27.02.2017 06:00:00 0,0 -1,0 0,0
27.02.2017 05:00:00 -0,6 -1,8 0,0
27.02.2017 04:00:00 0,7 -1,2 0,0
27.02.2017 03:00:00 0,8 -1,1 0,0
27.02.2017 02:00:00 1,5 -1,3 0,0
27.02.2017 01:00:00 1,1 -0,2 0,4
27.02.2017 00:00:00 1,7 -0,3 0,0
26.02.2017 23:00:00 2,6 0,6 0,4
26.02.2017 22:00:00 3,4 1,1 0,2
26.02.2017 21:00:00 4,0 1,7 0,0
26.02.2017 20:00:00 4,3 2,1 0,0
26.02.2017 19:00:00 4,4 3,0 0,8
26.02.2017 18:00:00 1,8 1,0 4,0
26.02.2017 17:00:00 4,8 4,1 1,8
26.02.2017 16:00:00 5,4 4,0 0,8
26.02.2017 15:00:00 6,5 4,4 0,4
26.02.2017 14:00:00 7,2 3,4 0,0
26.02.2017 13:00:00 7,5 4,1 0,0
26.02.2017 12:00:00 7,5 4,4 0,0
26.02.2017 11:00:00 6,9 4,5 0,0
26.02.2017 10:00:00 5,6 4,2 0,2
26.02.2017 09:00:00 4,3 3,1 1,4
26.02.2017 08:00:00 5,0 3,4 1,4
26.02.2017 07:00:00 3,9 2,6 0,2
26.02.2017 06:00:00 4,2 2,2 0,0
26.02.2017 05:00:00 3,8 2,1 0,0
26.02.2017 04:00:00 3,9 2,2 0,0
26.02.2017 03:00:00 3,9 2,1 0,0
26.02.2017 02:00:00 3,9 2,3 0,0
26.02.2017 01:00:00 3,6 2,3 0,0
26.02.2017 00:00:00 3,8 2,3 0,0
25.02.2017 23:00:00 3,4 2,1 0,0
25.02.2017 22:00:00 4,3 2,6 0,2
25.02.2017 21:00:00 4,3 2,4 0,0
25.02.2017 20:00:00 4,3 2,9 0,0
25.02.2017 19:00:00 3,9 2,4 0,0
25.02.2017 18:00:00 4,5 2,7 0,2
25.02.2017 17:00:00 6,1 3,0 0,0
25.02.2017 16:00:00 5,4 3,4 0,0
25.02.2017 15:00:00 6,4 4,0 0,0
25.02.2017 14:00:00 7,0 3,1 0,2
25.02.2017 13:00:00 5,9 2,7 0,0
25.02.2017 12:00:00 7,7 4,6 0,0
25.02.2017 11:00:00 7,4 6,5 0,0
25.02.2017 10:00:00 7,2 6,8 1,6
25.02.2017 09:00:00 8,5 7,7 5,0
25.02.2017 08:00:00 9,9 8,1 0,8
25.02.2017 07:00:00 9,9 7,5 0,8
25.02.2017 06:00:00 9,7 7,5 0,8
25.02.2017 05:00:00 10,0 7,2 0,2
25.02.2017 04:00:00 10,4 7,0 0,0
25.02.2017 03:00:00 10,0 6,8 0,0
25.02.2017 02:00:00 10,1 6,8 0,0
25.02.2017 01:00:00 9,3 6,6 0,0
25.02.2017 00:00:00 8,7 6,4 0,0
24.02.2017 23:00:00 7,7 5,5 0,0
24.02.2017 22:00:00 7,7 5,0 0,0
24.02.2017 21:00:00 6,5 4,4 0,0
24.02.2017 20:00:00 4,1 2,7 0,0
24.02.2017 19:00:00 2,3 1,5 0,4
24.02.2017 18:00:00 1,8 1,1 0,6
24.02.2017 17:00:00 1,4 0,7 0,6
24.02.2017 16:00:00 1,4 0,6 0,0
24.02.2017 15:00:00 1,7 0,6 0,0
24.02.2017 14:00:00 1,2 -0,3 0,8
24.02.2017 13:00:00 0,8 -0,7 2,0
24.02.2017 12:00:00 0,5 -0,7 1,4
24.02.2017 11:00:00 0,3 -0,6 0,4
24.02.2017 10:00:00 -0,7 -1,1 0,0
24.02.2017 09:00:00 -3,0 -3,4 0,0
24.02.2017 08:00:00 -4,2 -4,8 0,0
24.02.2017 07:00:00 -4,5 -5,0 0,0
24.02.2017 06:00:00 -3,2 -3,6 0,0
24.02.2017 05:00:00 -3,9 -4,4 0,0
24.02.2017 04:00:00 -3,2 -3,6 0,0
24.02.2017 03:00:00 -3,5 -4,1 0,0
24.02.2017 02:00:00 -2,3 -3,0 0,0
24.02.2017 01:00:00 -0,6 -1,2 0,0
24.02.2017 00:00:00 -0,2 -0,6 0,0
23.02.2017 23:00:00 -0,3 -0,8 0,0
23.02.2017 22:00:00 0,3 -0,2 0,2
23.02.2017 21:00:00 0,4 0,0 0,0
23.02.2017 20:00:00 0,4 0,1 0,2
23.02.2017 19:00:00 0,3 0,0 0,2
23.02.2017 18:00:00 0,4 -0,2 1,0
23.02.2017 17:00:00 0,7 -0,3 2,2
23.02.2017 16:00:00 4,0 0,3 0,0
23.02.2017 15:00:00 4,2 -0,4 0,0
23.02.2017 14:00:00 4,8 0,7 0,0
23.02.2017 13:00:00 4,1 0,7 0,0
23.02.2017 12:00:00 3,2 1,3 0,0
23.02.2017 11:00:00 2,2 1,6 0,2
23.02.2017 10:00:00 1,5 0,6 1,2
23.02.2017 09:00:00 2,2 1,2 0,0
23.02.2017 08:00:00 1,8 0,8 0,0
23.02.2017 07:00:00 1,6 0,8 0,0
23.02.2017 06:00:00 1,6 0,8 0,0
23.02.2017 05:00:00 2,0 1,3 0,0
23.02.2017 04:00:00 1,2 0,8 0,2
23.02.2017 03:00:00 1,0 0,7 0,0
23.02.2017 02:00:00 1,0 0,7 0,2
23.02.2017 01:00:00 0,9 0,7 0,0
23.02.2017 00:00:00 0,6 0,4 0,0
22.02.2017 23:00:00 1,0 0,6 0,0
22.02.2017 22:00:00 1,5 0,9 0,8
22.02.2017 21:00:00 1,8 1,1 0,0
22.02.2017 20:00:00 2,1 1,3 0,8
22.02.2017 19:00:00 2,7 1,5 0,4
22.02.2017 18:00:00 3,3 1,5 0,2
22.02.2017 17:00:00 3,5 1,5 0,4
22.02.2017 16:00:00 4,5 1,8 0,2
22.02.2017 15:00:00 5,5 3,7 0,0
22.02.2017 14:00:00 5,2 3,0 0,2
22.02.2017 13:00:00 4,0 3,2 1,6
22.02.2017 12:00:00 5,9 2,0 0,0
22.02.2017 11:00:00 5,5 2,8 0,0
22.02.2017 10:00:00 4,6 3,7 0,4
22.02.2017 09:00:00 4,7 3,7 0,2
22.02.2017 08:00:00 5,0 4,0 0,2
22.02.2017 07:00:00 4,4 3,8 0,4
22.02.2017 06:00:00 3,1 2,9 0,6
22.02.2017 05:00:00 4,8 1,6 0,4
22.02.2017 04:00:00 4,7 2,9 0,4
22.02.2017 03:00:00 4,6 3,1 0,0
22.02.2017 02:00:00 4,8 3,6 0,4
22.02.2017 01:00:00 4,9 2,3 0,4
22.02.2017 00:00:00 5,0 1,2 0,0
21.02.2017 23:00:00 5,3 0,5 0,0
21.02.2017 22:00:00 4,6 2,6 0,0

tt = Temperatura
td = dewpoint
rr = precipitazioni

Stazioni seguenti

WeatherPro
AMSI
MeteoEarth